Date String (YYYY-MM-DD hh:mm:ss) UTC,Instrument flags,Ambient pressure (hPa),Sample flow (lpm),Bypass flow (lpm),Sample temperature (°C),Ambient temperature (°C),ASC tube jacket temperature (°C),LED temperature (°C),Box temperature (°C),Sample RH (%),Span deviation,Mass concentration (μg/m³),Mass concentration (μg/m³),Mass concentration (μg/m³)
DateTimeUTC,F1_M11,P_M11,Q1_M11,Q2_M11,T1_M11,T2_M11,T3_M11,T4_M11,T5_M11,U1_M11,ZSPAN_M11,X0_M11,X2_M11,X1_M11
2021-08-29 21:00:00,,0829.1,5.02,0.00,29.2,27.5,00.0,38.3,31.1,28.2,0001.5,0024.52,0016.28,0015.42
2021-08-29 21:01:00,,0829.1,5.00,0.00,29.3,27.9,00.0,38.3,31.2,28.2,0001.6,0025.40,0016.28,0015.41
2021-08-29 21:02:00,,0829.1,5.00,0.00,29.3,28.2,00.0,38.3,31.3,28.6,0001.8,0026.04,0016.30,0015.39
2021-08-29 21:03:00,,0829.1,5.00,0.00,29.4,28.4,00.0,38.4,31.3,28.0,0001.8,0026.03,0016.26,0015.35
2021-08-29 21:04:00,,0829.1,5.00,0.00,29.5,28.6,00.0,38.4,31.4,27.8,0001.8,0025.18,0016.21,0015.29
2021-08-29 21:05:00,,0829.1,4.99,0.00,29.5,28.7,00.0,38.4,31.5,27.3,0001.6,0024.21,0016.24,0015.27
2021-08-29 21:06:00,,0829.1,4.99,0.00,29.6,28.5,00.0,38.5,31.4,27.3,0001.6,0024.70,0016.24,0015.23
2021-08-29 21:07:00,,0829.1,5.00,0.00,29.5,26.9,00.0,38.4,30.9,28.2,0001.9,0024.28,0016.18,0015.16
2021-08-29 21:08:00,,0829.0,5.01,0.00,29.3,26.0,00.0,38.4,30.7,28.5,0002.2,0023.66,0016.10,0015.09
2021-08-29 21:09:00,,0829.0,5.00,0.00,29.2,26.2,00.0,38.4,30.7,28.2,0002.3,0022.98,0016.02,0015.02
2021-08-29 21:10:00,,0829.0,5.01,0.00,29.2,26.6,00.0,38.4,30.8,27.9,0002.4,0022.76,0015.97,0014.94
2021-08-29 21:11:00,,0828.9,5.00,0.00,29.2,27.1,00.0,38.3,30.9,27.6,0002.4,0022.96,0015.98,0014.91
2021-08-29 21:12:00,,0828.9,5.00,0.00,29.2,27.5,00.0,38.3,31.0,27.6,0002.3,0022.56,0015.95,0014.88
2021-08-29 21:13:00,,0828.9,4.99,0.00,29.3,27.8,00.0,38.3,31.2,28.0,0002.1,0022.57,0015.90,0014.86
2021-08-29 21:14:00,,0828.9,5.01,0.00,29.3,28.1,00.0,38.4,31.2,27.6,0002.3,0022.36,0015.85,0014.83
2021-08-29 21:15:00,,0828.9,5.00,0.00,29.4,28.3,00.0,38.4,31.3,27.3,0002.3,0023.04,0015.82,0014.83
2021-08-29 21:16:00,,0828.8,4.99,0.00,29.4,28.5,00.0,38.4,31.4,27.3,0002.3,0023.31,0015.75,0014.80
2021-08-29 21:17:00,,0828.8,5.00,0.00,29.5,28.7,00.0,38.4,31.5,27.2,0002.3,0022.73,0015.68,0014.78
2021-08-29 21:18:00,,0829.1,5.01,0.00,29.6,28.8,00.0,38.5,31.5,27.2,0002.1,0023.10,0015.68,0014.78
2021-08-29 21:19:00,,0829.0,5.00,0.00,29.6,28.2,00.0,38.5,31.4,27.2,0001.9,0023.62,0015.70,0014.78
2021-08-29 21:20:00,,0829.0,5.01,0.00,29.5,26.5,00.0,38.5,30.9,27.2,0001.8,0023.67,0015.72,0014.82
2021-08-29 21:21:00,,0828.8,5.00,0.00,29.3,25.9,00.0,38.5,30.7,27.6,0001.6,0023.41,0015.71,0014.82
2021-08-29 21:22:00,,0829.2,5.00,0.00,29.3,26.2,00.0,38.4,30.8,27.9,0001.8,0023.12,0015.71,0014.81
2021-08-29 21:23:00,,0829.3,4.99,0.00,29.2,26.7,00.0,38.4,30.9,28.0,0001.7,0022.64,0015.67,0014.79
2021-08-29 21:24:00,,0829.3,5.01,0.00,29.2,27.1,00.0,38.4,31.0,27.8,0001.9,0022.39,0015.67,0014.79
2021-08-29 21:25:00,,0829.2,5.01,0.00,29.3,27.5,00.0,38.4,31.1,27.7,0001.7,0022.40,0015.72,0014.84
2021-08-29 21:26:00,,0829.3,4.99,0.00,29.3,27.9,00.0,38.4,31.2,27.7,0001.6,0021.81,0015.75,0014.87
2021-08-29 21:27:00,,0828.8,5.01,0.00,29.4,28.1,00.0,38.4,31.3,27.9,0001.6,0021.20,0015.76,0014.89
2021-08-29 21:28:00,,0829.0,4.99,0.00,29.4,28.4,00.0,38.4,31.3,27.9,0001.5,0021.21,0015.80,0014.90
2021-08-29 21:29:00,,0828.9,4.99,0.00,29.5,28.6,00.0,38.4,31.4,28.5,0001.5,0020.67,0015.79,0014.91
2021-08-29 21:30:00,,0828.8,5.00,0.00,29.5,28.8,00.0,38.5,31.5,27.7,0001.5,0020.21,0015.79,0014.95
2021-08-29 21:31:00,,0828.7,4.99,0.00,29.6,28.6,00.0,38.5,31.4,27.4,0001.5,0020.22,0015.83,0014.98
2021-08-29 21:32:00,,0829.4,5.01,0.00,29.5,26.9,00.0,38.5,31.0,27.6,0001.5,0020.78,0015.89,0015.05
2021-08-29 21:33:00,,0829.4,5.00,0.00,29.4,25.9,00.0,38.5,30.7,28.0,0001.4,0020.88,0015.92,0015.10
2021-08-29 21:34:00,,0829.2,5.00,0.00,29.3,26.1,00.0,38.4,30.8,28.5,0001.5,0021.72,0015.99,0015.15
2021-08-29 21:35:00,,0829.2,5.00,0.00,29.3,26.6,00.0,38.4,30.9,28.6,0001.5,0021.52,0015.98,0015.15
2021-08-29 21:36:00,,0829.4,5.00,0.00,29.3,27.0,00.0,38.4,31.0,27.7,0001.6,0022.39,0015.94,0015.12
2021-08-29 21:37:00,,0829.2,5.01,0.00,29.3,27.4,00.0,38.4,31.1,27.6,0001.7,0023.04,0015.93,0015.10
2021-08-29 21:38:00,,0829.0,5.00,0.00,29.3,27.8,00.0,38.4,31.2,27.6,0001.9,0023.06,0015.91,0015.11
2021-08-29 21:39:00,,0828.7,5.00,0.00,29.4,28.1,00.0,38.4,31.3,27.7,0002.0,0023.22,0015.92,0015.16
2021-08-29 21:40:00,,0828.7,5.00,0.00,29.4,28.4,00.0,38.4,31.3,27.5,0002.0,0023.58,0015.93,0015.15
2021-08-29 21:41:00,,0828.8,4.99,0.00,29.5,28.6,00.0,38.4,31.4,27.4,0002.1,0024.15,0015.94,0015.14
2021-08-29 21:42:00,,0829.1,5.00,0.00,29.5,28.8,00.0,38.5,31.5,27.7,0002.1,0024.99,0015.96,0015.13
2021-08-29 21:43:00,,0828.7,4.99,0.00,29.6,28.2,00.0,38.5,31.4,27.4,0002.0,0024.67,0015.94,0015.09
2021-08-29 21:44:00,,0828.9,5.01,0.00,29.5,26.5,00.0,38.5,31.0,27.8,0001.9,0024.89,0015.89,0015.07
2021-08-29 21:45:00,,0828.8,4.99,0.00,29.3,25.9,00.0,38.5,30.8,27.6,0001.8,0024.05,0015.88,0015.09
2021-08-29 21:46:00,,0828.9,5.01,0.00,29.3,26.2,00.0,38.4,30.8,28.3,0001.6,0024.04,0015.93,0015.12
2021-08-29 21:47:00,,0828.8,5.00,0.00,29.2,26.7,00.0,38.4,30.9,28.7,0001.7,0024.06,0015.95,0015.14
2021-08-29 21:48:00,,0828.8,4.99,0.00,29.3,27.1,00.0,38.4,31.0,29.0,0001.8,0023.56,0015.98,0015.18
2021-08-29 21:49:00,,0828.7,5.01,0.00,29.3,27.6,00.0,38.4,31.1,29.0,0001.7,0023.62,0016.05,0015.21
2021-08-29 21:50:00,,0828.7,4.99,0.00,29.3,27.9,00.0,38.4,31.2,28.3,0001.7,0023.97,0016.05,0015.21
2021-08-29 21:51:00,,0828.9,5.01,0.00,29.4,28.2,00.0,38.4,31.3,27.7,0001.7,0024.01,0016.07,0015.24
2021-08-29 21:52:00,,0828.9,4.99,0.00,29.4,28.4,00.0,38.4,31.4,27.8,0001.8,0023.41,0016.05,0015.24
2021-08-29 21:53:00,,0829.1,5.00,0.00,29.5,28.6,00.0,38.4,31.4,28.2,0001.9,0022.48,0016.01,0015.23
2021-08-29 21:54:00,,0829.1,4.99,0.00,29.5,28.4,00.0,38.5,31.4,28.3,0002.0,0022.58,0016.06,0015.25
2021-08-29 21:55:00,,0828.8,5.01,0.00,29.5,26.8,00.0,38.4,31.0,28.4,0002.0,0022.67,0016.08,0015.24
2021-08-29 21:56:00,,0828.8,5.00,0.00,29.3,25.9,00.0,38.4,30.7,28.4,0002.1,0022.87,0016.09,0015.23
2021-08-29 21:57:00,,0828.9,5.00,0.00,29.3,26.1,00.0,38.4,30.8,28.6,0002.3,0023.17,0016.09,0015.21
2021-08-29 21:58:00,,0828.8,4.99,0.00,29.2,26.5,00.0,38.4,30.9,28.8,0002.3,0022.16,0016.10,0015.20
2021-08-29 21:59:00,,0828.8,5.00,0.00,29.2,27.0,00.0,38.3,31.0,28.4,0002.0,0022.44,0016.09,0015.18
